TimeMDT,TemperatureF,Dew PointF,Humidity,Sea Level PressureIn,VisibilityMPH,Wind Direction,Wind SpeedMPH,Gust SpeedMPH,PrecipitationIn,Events,Conditions,WindDirDegrees,DateUTC
12:53 AM,37.9,32.0,79,30.18,10.0,NNE,4.6,-,N/A,,Scattered Clouds,20,2012-10-14 06:53:00
1:53 AM,36.0,30.9,82,30.19,10.0,North,10.4,-,N/A,,Partly Cloudy,350,2012-10-14 07:53:00
2:53 AM,35.1,30.0,82,30.22,10.0,NW,5.8,-,N/A,,Mostly Cloudy,310,2012-10-14 08:53:00
3:53 AM,39.9,32.0,73,30.21,10.0,WNW,5.8,-,N/A,,Overcast,300,2012-10-14 09:53:00
4:53 AM,32.0,28.0,85,30.25,10.0,WNW,4.6,-,N/A,,Clear,290,2012-10-14 10:53:00
5:53 AM,34.0,28.9,82,30.27,10.0,NW,8.1,-,N/A,,Clear,320,2012-10-14 11:53:00
6:53 AM,35.1,30.0,82,30.29,10.0,NW,11.5,-,N/A,,Clear,320,2012-10-14 12:53:00
7:53 AM,33.1,28.0,82,30.31,10.0,NW,3.5,-,N/A,,Clear,320,2012-10-14 13:53:00
8:53 AM,39.0,30.9,73,30.32,10.0,NW,3.5,-,N/A,,Clear,310,2012-10-14 14:53:00
9:53 AM,46.0,34.0,63,30.29,10.0,Variable,4.6,-,N/A,,Clear,0,2012-10-14 15:53:00
10:53 AM,53.1,30.9,43,30.23,10.0,North,8.1,17.3,N/A,,Clear,350,2012-10-14 16:53:00
11:53 AM,55.9,28.9,36,30.20,10.0,Variable,4.6,-,N/A,,Clear,0,2012-10-14 17:53:00
12:53 PM,55.9,28.9,36,30.21,10.0,Calm,Calm,-,N/A,,Clear,0,2012-10-14 18:53:00
1:53 PM,59.0,28.9,32,30.18,10.0,WSW,9.2,-,N/A,,Clear,250,2012-10-14 19:53:00
2:53 PM,60.1,28.0,30,30.15,10.0,South,6.9,-,N/A,,Clear,190,2012-10-14 20:53:00
3:53 PM,62.1,27.0,26,30.11,10.0,WSW,8.1,-,N/A,,Clear,240,2012-10-14 21:53:00
4:53 PM,64.0,24.1,22,30.13,10.0,North,10.4,16.1,N/A,,Clear,360,2012-10-14 22:53:00
5:53 PM,60.1,24.1,25,30.14,10.0,NW,12.7,-,N/A,,Clear,320,2012-10-14 23:53:00
6:53 PM,48.0,23.0,37,30.18,10.0,NNW,9.2,-,N/A,,Clear,340,2012-10-15 00:53:00
7:53 PM,43.0,24.1,47,30.23,10.0,NW,5.8,-,N/A,,Clear,310,2012-10-15 01:53:00
8:53 PM,41.0,24.1,51,30.21,10.0,NW,6.9,-,N/A,,Clear,320,2012-10-15 02:53:00
9:53 PM,41.0,25.0,53,30.18,10.0,NW,5.8,-,N/A,,Clear,310,2012-10-15 03:53:00
10:53 PM,37.0,25.0,62,30.17,10.0,WNW,6.9,-,N/A,,Clear,300,2012-10-15 04:53:00
11:53 PM,35.1,24.1,64,30.15,10.0,North,4.6,-,N/A,,Clear,350,2012-10-15 05:53:00